Weather reports worldwide

Advertisment
Jaen, Spain (8417): temperature & dewpoint: 09.12.2019 18:00:00 - 15.12.2019 18:00:00 (CET)Jaen, Spain (8417): wind speed: 09.12.2019 18:00:00 - 15.12.2019 18:00:00 (CET)Jaen, Spain (8417): wind direction: 09.12.2019 18:00:00 - 15.12.2019 18:00:00 (CET)Jaen, Spain (8417): reduced air pressure: 09.12.2019 18:00:00 - 15.12.2019 18:00:00 (CET)Jaen, Spain (8417): visibility: 09.12.2019 18:00:00 - 15.12.2019 18:00:00 (CET)Jaen, Spain (8417): precipitation: 09.12.2019 18:00:00 - 15.12.2019 18:00:00 (CET)
Date & Time tt [°C] td [°C] ff [km/h] ff [kn] dd ppp [hPa] vv [km] rr [mm]
15.12.2019 18:00:00 - - - - - - - -
15.12.2019 17:00:00 - - - - - - - -
15.12.2019 16:00:00 - - - - - - - -
15.12.2019 15:00:00 - - - - - - - -
15.12.2019 14:00:00 - - - - - - - -
15.12.2019 13:00:00 - - - - - - - -
15.12.2019 12:00:00 - - - - - - - -
15.12.2019 11:00:00 - - - - - - - -
15.12.2019 10:00:00 - - - - - - - -
15.12.2019 09:00:00 - - - - - - - -
15.12.2019 08:00:00 - - - - - - - -
15.12.2019 07:00:00 - - - - - - - -
15.12.2019 06:00:00 - - - - - - - -
15.12.2019 05:00:00 - - - - - - - -
15.12.2019 04:00:00 - - - - - - - -
15.12.2019 03:00:00 - - - - - - - -
15.12.2019 02:00:00 - - - - - - - -
15.12.2019 01:00:00 - - - - - - - -
15.12.2019 00:00:00 - - - - - - - -
14.12.2019 23:00:00 - - - - - - - -
14.12.2019 22:00:00 - - - - - - - -
14.12.2019 21:00:00 - - - - - - - -
14.12.2019 20:00:00 - - - - - - - -
14.12.2019 19:00:00 - - - - - - - -
14.12.2019 18:00:00 - - - - - - - -
14.12.2019 17:00:00 - - - - - - - -
14.12.2019 16:00:00 - - - - - - - -
14.12.2019 15:00:00 - - - - - - - -
14.12.2019 14:00:00 - - - - - - - -
14.12.2019 13:00:00 - - - - - - - -
14.12.2019 12:00:00 - - - - - - - -
14.12.2019 11:00:00 - - - - - - - -
14.12.2019 10:00:00 - - - - - - - -
14.12.2019 09:00:00 - - - - - - - -
14.12.2019 08:00:00 - - - - - - - -
14.12.2019 07:00:00 - - - - - - - -
14.12.2019 06:00:00 - - - - - - - -
14.12.2019 05:00:00 - - - - - - - -
14.12.2019 04:00:00 11,4 8,6 9 5 W 1022,6 20 -
14.12.2019 03:00:00 11,7 8,9 11 6 W 1022,9 20 0,0
14.12.2019 02:00:00 12,0 7,7 5 3 W 1022,6 20 0,0
14.12.2019 01:00:00 11,8 6,7 11 6 W 1022,8 20 -
14.12.2019 00:00:00 12,1 6,8 8 4 WSW 1023,2 20 0,0
13.12.2019 23:00:00 12,6 7,7 9 5 W 1023,0 20 0,0
13.12.2019 22:00:00 13,0 8,3 11 6 WSW 1022,9 20 -
13.12.2019 21:00:00 13,1 8,0 13 7 WSW 1022,9 20 0,0
13.12.2019 20:00:00 12,9 8,8 21 11 W 1022,6 20 0,0
13.12.2019 19:00:00 12,7 8,2 13 7 W 1022,6 20 -
13.12.2019 18:00:00 12,7 8,8 21 11 W 1022,1 20 0,0
13.12.2019 17:00:00 13,0 8,9 16 9 W 1021,9 20 0,0
13.12.2019 16:00:00 13,4 9,3 22 12 W 1021,6 20 -
13.12.2019 15:00:00 13,3 9,2 22 12 W 1021,2 20 0,0
13.12.2019 14:00:00 13,0 9,1 18 10 W 1021,9 20 0,0
13.12.2019 13:00:00 12,8 8,9 22 12 W 1022,3 20 -
13.12.2019 12:00:00 12,7 8,4 24 13 W 1022,8 20 0,0
13.12.2019 11:00:00 12,5 8,4 21 11 W 1022,9 20 0,0
13.12.2019 10:00:00 12,4 8,5 26 14 W 1021,7 20 -
13.12.2019 09:00:00 11,4 8,4 29 16 W 1021,4 20 0,0
13.12.2019 08:00:00 11,7 9,4 29 16 W 1020,8 20 0,0
13.12.2019 07:00:00 11,9 9,5 24 13 WNW 1020,2 5 -
13.12.2019 06:00:00 11,5 9,7 26 14 W 1020,4 18 0,0
13.12.2019 05:00:00 11,7 9,6 34 18 W 1019,9 20 0,0
13.12.2019 04:00:00 11,3 9,4 37 20 W 1020,1 20 -
13.12.2019 03:00:00 11,4 9,1 24 13 W 1020,7 20 0,0
13.12.2019 02:00:00 11,1 8,7 35 19 W 1020,4 20 0,0
13.12.2019 01:00:00 10,6 8,4 31 17 W 1020,8 20 -
13.12.2019 00:00:00 10,7 7,8 39 21 W 1021,0 20 0,0
12.12.2019 23:00:00 10,8 7,1 26 14 WSW 1021,6 20 0,0
12.12.2019 22:00:00 11,1 6,0 26 14 WSW 1021,5 20 -
12.12.2019 21:00:00 10,8 5,7 16 9 W 1021,6 20 0,0
12.12.2019 20:00:00 10,8 5,3 24 13 W 1022,4 20 0,0
12.12.2019 19:00:00 10,5 5,0 22 12 W 1022,7 20 -
12.12.2019 18:00:00 10,1 4,7 18 10 W 1023,3 20 0,0
12.12.2019 17:00:00 10,0 4,6 16 9 WSW 1023,2 20 0,0
12.12.2019 16:00:00 10,4 4,3 13 7 WNW 1023,5 20 -
12.12.2019 15:00:00 10,9 3,9 13 7 W 1023,3 20 0,0
12.12.2019 14:00:00 10,5 4,0 16 9 WNW 1024,6 19 0,0
12.12.2019 13:00:00 10,0 3,5 18 10 WNW 1025,8 20 -
12.12.2019 12:00:00 10,0 3,0 16 9 WNW 1027,0 20 0,0
12.12.2019 11:00:00 9,8 2,2 11 6 NW 1027,6 20 0,0
12.12.2019 10:00:00 8,3 2,3 9 5 W 1027,1 20 -
12.12.2019 09:00:00 6,9 2,0 15 8 W 1027,4 20 0,0
12.12.2019 08:00:00 5,3 0,8 13 7 W 1027,8 20 0,0
12.12.2019 07:00:00 4,9 2,8 5 3 SSE 1026,4 5 -
12.12.2019 06:00:00 4,6 2,6 4 2 SSW 1027,6 20 0,0
12.12.2019 05:00:00 5,2 2,7 2 1 W 1027,6 20 0,0
12.12.2019 04:00:00 5,2 2,9 5 3 SW 1027,7 20 -
12.12.2019 03:00:00 5,3 2,8 8 4 SW 1027,8 20 0,0
12.12.2019 02:00:00 5,6 2,8 5 3 S 1028,2 20 0,0
12.12.2019 01:00:00 6,3 3,5 8 4 W 1028,3 20 -
12.12.2019 00:00:00 6,7 3,8 11 6 S 1028,4 20 0,0
11.12.2019 23:00:00 6,7 3,8 9 5 W 1029,0 20 0,0
11.12.2019 22:00:00 7,7 3,9 4 2 W 1028,5 20 -
11.12.2019 21:00:00 8,7 4,5 11 6 W 1028,1 20 0,0
11.12.2019 20:00:00 9,4 6,5 11 6 W 1027,6 20 0,0
11.12.2019 19:00:00 10,5 6,6 13 7 NW 1027,1 20 -
11.12.2019 18:00:00 11,4 6,3 11 6 WNW 1025,9 20 0,0
11.12.2019 17:00:00 11,8 5,2 15 8 WNW 1024,8 20 0,0
11.12.2019 16:00:00 12,9 4,1 15 8 NW 1024,0 20 -
11.12.2019 15:00:00 13,6 2,2 15 8 NW 1023,6 20 0,0
11.12.2019 14:00:00 14,3 -6,6 9 5 WNW 1024,2 20 0,0
11.12.2019 13:00:00 12,5 -1,5 5 3 ESE 1025,2 20 -
11.12.2019 12:00:00 12,1 1,7 8 4 NW 1025,9 19 0,0
11.12.2019 11:00:00 10,8 3,3 2 1 NNE 1026,2 20 0,0
11.12.2019 10:00:00 9,3 2,4 2 1 NE 1026,5 20 -
11.12.2019 09:00:00 6,9 1,0 5 3 WSW 1026,6 20 0,0
11.12.2019 08:00:00 7,1 0,5 2 1 W 1026,4 20 0,0
11.12.2019 07:00:00 6,8 0,5 4 2 WSW 1026,1 20 -
11.12.2019 06:00:00 - - - - - - - -
11.12.2019 05:00:00 - - - - - - - -
11.12.2019 04:00:00 - - - - - - - -
11.12.2019 03:00:00 - - - - - - - -
11.12.2019 02:00:00 - - - - - - - -
11.12.2019 01:00:00 - - - - - - - -
11.12.2019 00:00:00 - - - - - - - -
10.12.2019 23:00:00 - - - - - - - -
10.12.2019 22:00:00 - - - - - - - -
10.12.2019 21:00:00 - - - - - - - -
10.12.2019 20:00:00 - - - - - - - -
10.12.2019 19:00:00 - - - - - - - -
10.12.2019 18:00:00 - - - - - - - -
10.12.2019 17:00:00 - - - - - - - -
10.12.2019 16:00:00 - - - - - - - -
10.12.2019 15:00:00 - - - - - - - -
10.12.2019 14:00:00 - - - - - - - -
10.12.2019 13:00:00 13,9 3,1 2 1 N 1027,8 20 -
10.12.2019 12:00:00 13,7 3,7 5 3 NNE 1028,5 19 0,0
10.12.2019 11:00:00 13,0 2,2 8 4 SE 1028,8 20 0,0
10.12.2019 10:00:00 10,9 3,4 5 3 ESE 1029,0 20 -
10.12.2019 09:00:00 8,4 3,8 2 1 SE 1029,6 19 0,0
10.12.2019 08:00:00 8,0 4,2 4 2 SE 1030,2 20 0,0
10.12.2019 07:00:00 6,1 2,7 4 2 ESE 1030,5 5 -
10.12.2019 06:00:00 5,3 2,8 2 1 SE 1030,4 20 0,0
10.12.2019 05:00:00 7,7 3,4 5 3 NW 1030,1 20 0,0
10.12.2019 04:00:00 6,5 3,1 5 3 W 1030,9 20 -
10.12.2019 03:00:00 10,4 3,4 5 3 S 1029,9 20 0,0
10.12.2019 02:00:00 11,5 4,0 8 4 SE 1029,8 20 0,0
10.12.2019 01:00:00 11,0 4,2 9 5 SSE 1030,6 20 -
10.12.2019 00:00:00 10,2 4,8 5 3 S 1031,1 20 0,0
09.12.2019 23:00:00 9,9 3,8 5 3 SSE 1030,6 20 0,0
09.12.2019 22:00:00 9,2 1,4 4 2 S 1030,9 20 -
09.12.2019 21:00:00 11,4 0,8 5 3 SSE 1029,5 20 0,0
09.12.2019 20:00:00 9,3 7,4 4 2 SSW 1030,6 17 0,0
09.12.2019 19:00:00 9,6 4,2 4 2 WSW 1030,1 20 -
09.12.2019 18:00:00 10,9 4,1 4 2 SE 1029,6 20 0,0

tt = temperature
td = dewpoint
ff = wind speed
dd = wind direction
ppp = reduced air pressure
vv = visibility
rr = precipitation

Next stations